Tracking 30692 objects as of 16-Jun-2025
HD Live streaming from Space Station
objects crossing your sky now

STARLINK-31188

Track STARLINK-31188 now!
10-day predictions
STARLINK-31188 is classified as:


NORAD ID: 58804
Int'l Code: 2024-012T
Perigee: 494.5 km
Apogee: 496.3 km
Inclination: 43.0 °
Period: 94.4 minutes
Semi major axis: 6866 km
RCS: Unknown
Launch date: January 15, 2024
Source: United States (US)
Launch site: AIR FORCE EASTERN TEST RANGE (AFETR)
Your satellite tracking list
Your tracking list is empty




NASA's NSSDC Master Catalog

Two Line Element Set (TLE):
1 58804U 24012T   25167.21912850  .00012449  00000-0  48588-3 0  9999
2 58804  43.0061 229.1854 0001329 286.8552  73.2153 15.25845713 80496
Source of the keplerian elements: AFSPC